TimeEST,TemperatureF,Dew PointF,Humidity,Sea Level PressureIn,VisibilityMPH,Wind Direction,Wind SpeedMPH,Gust SpeedMPH,PrecipitationIn,Events,Conditions,WindDirDegrees,DateUTC
12:16 AM,48.0,42.1,80,30.14,2.0,North,17.3,26.5,0.09,Rain,Heavy Rain,10,2013-12-24 05:16:00
12:27 AM,48.0,41.0,77,30.13,4.0,North,20.7,28.8,0.12,Rain,Rain,360,2013-12-24 05:27:00
12:56 AM,46.9,39.9,77,30.14,5.0,North,15.0,28.8,0.17,Rain,Rain,360,2013-12-24 05:56:00
1:05 AM,46.9,39.9,77,30.13,5.0,North,16.1,23.0,0.02,Rain,Rain,360,2013-12-24 06:05:00
1:47 AM,46.9,41.0,80,30.13,5.0,North,11.5,-,0.09,Rain,Rain,360,2013-12-24 06:47:00
1:56 AM,46.9,41.0,80,30.13,5.0,North,15.0,19.6,0.09,Rain,Light Rain,360,2013-12-24 06:56:00
2:37 AM,46.0,39.0,76,30.14,8.0,North,12.7,21.9,0.05,Rain,Light Rain,360,2013-12-24 07:37:00
2:44 AM,46.0,39.0,76,30.13,5.0,North,12.7,21.9,0.07,Rain,Rain,360,2013-12-24 07:44:00
2:56 AM,45.0,39.0,80,30.15,7.0,North,15.0,19.6,0.08,Rain,Light Rain,360,2013-12-24 07:56:00
3:10 AM,45.0,37.9,76,30.14,6.0,North,13.8,21.9,0.01,Rain,Light Rain,360,2013-12-24 08:10:00
3:17 AM,45.0,37.9,76,30.14,5.0,North,16.1,24.2,0.02,Rain,Light Rain,360,2013-12-24 08:17:00
3:23 AM,44.1,37.9,79,30.14,6.0,North,10.4,24.2,0.02,Rain,Light Rain,350,2013-12-24 08:23:00
3:56 AM,45.0,37.0,74,30.14,9.0,North,12.7,-,0.04,Rain,Light Rain,360,2013-12-24 08:56:00
4:29 AM,45.0,36.0,71,30.12,10.0,North,11.5,25.3,0.00,,Overcast,360,2013-12-24 09:29:00
4:39 AM,45.0,36.0,71,30.11,10.0,North,11.5,-,0.00,,Overcast,10,2013-12-24 09:39:00
4:56 AM,45.0,35.1,68,30.13,10.0,North,13.8,26.5,0.00,,Overcast,350,2013-12-24 09:56:00
5:56 AM,44.1,35.1,71,30.16,10.0,NNW,10.4,-,0.02,Rain,Light Rain,340,2013-12-24 10:56:00
6:56 AM,44.1,33.1,65,30.15,10.0,North,15.0,21.9,0.00,Rain,Light Rain,350,2013-12-24 11:56:00
7:56 AM,44.1,30.9,60,30.19,10.0,North,11.5,24.2,0.00,,Overcast,360,2013-12-24 12:56:00
8:28 AM,44.1,32.0,63,30.17,10.0,North,11.5,21.9,N/A,,Overcast,350,2013-12-24 13:28:00
8:56 AM,45.0,32.0,60,30.19,10.0,NNW,10.4,-,N/A,,Overcast,340,2013-12-24 13:56:00
9:07 AM,45.0,32.0,60,30.19,10.0,North,11.5,20.7,N/A,,Overcast,360,2013-12-24 14:07:00
9:56 AM,46.0,32.0,58,30.21,10.0,North,13.8,19.6,N/A,,Overcast,10,2013-12-24 14:56:00
10:42 AM,45.0,30.9,58,30.20,10.0,North,15.0,-,N/A,,Overcast,350,2013-12-24 15:42:00
10:56 AM,45.0,30.9,58,30.21,10.0,North,17.3,24.2,N/A,,Overcast,350,2013-12-24 15:56:00
11:41 AM,46.0,30.0,54,30.19,10.0,NNW,12.7,19.6,N/A,,Overcast,330,2013-12-24 16:41:00
11:48 AM,46.0,30.0,54,30.19,10.0,NNW,12.7,20.7,N/A,,Overcast,330,2013-12-24 16:48:00
11:56 AM,46.9,30.0,52,30.19,10.0,NNW,12.7,20.7,N/A,,Mostly Cloudy,330,2013-12-24 16:56:00
12:03 PM,46.9,30.0,52,30.18,10.0,North,15.0,-,N/A,,Scattered Clouds,360,2013-12-24 17:03:00
12:56 PM,46.0,28.0,50,30.20,10.0,NNW,11.5,19.6,N/A,,Clear,330,2013-12-24 17:56:00
1:56 PM,48.0,28.0,46,30.21,10.0,NNW,8.1,-,N/A,,Partly Cloudy,340,2013-12-24 18:56:00
2:56 PM,48.0,27.0,44,30.22,10.0,NW,8.1,17.3,N/A,,Clear,320,2013-12-24 19:56:00
3:56 PM,46.9,25.0,42,30.24,10.0,NW,8.1,17.3,N/A,,Clear,310,2013-12-24 20:56:00
4:56 PM,45.0,25.0,46,30.27,10.0,NW,4.6,-,N/A,,Clear,320,2013-12-24 21:56:00
5:56 PM,45.0,25.0,46,30.29,10.0,Variable,5.8,-,N/A,,Scattered Clouds,0,2013-12-24 22:56:00
6:56 PM,43.0,26.1,51,30.32,10.0,NW,3.5,-,N/A,,Partly Cloudy,320,2013-12-24 23:56:00
7:56 PM,44.1,25.0,47,30.34,10.0,NNW,5.8,-,N/A,,Mostly Cloudy,330,2013-12-25 00:56:00
8:56 PM,43.0,24.1,47,30.36,10.0,NNW,11.5,21.9,N/A,,Mostly Cloudy,340,2013-12-25 01:56:00
9:56 PM,39.9,24.1,53,30.40,10.0,NNW,13.8,21.9,N/A,,Clear,330,2013-12-25 02:56:00
10:56 PM,37.9,17.1,43,30.42,10.0,NNW,11.5,20.7,N/A,,Clear,340,2013-12-25 03:56:00
11:56 PM,36.0,8.1,31,30.44,10.0,NNW,11.5,18.4,N/A,,Clear,340,2013-12-25 04:56:00